Regional Weather Roundup
Issued by NWS

Home | Current Version | Previous Version | Graphics & Text | Print | Product List | Glossary On
Versions: 1 2 3 4 5 6 7 8 9 10 11 12 13 14 15 16 17 18 19 20 21 22 23 24 25 26 27 28 29 30 31 32 33 34 35 36 37 38 39 40 41 42 43 44 45 46 47 48 49 50
027
ASUS43 KMPX 171201
RWRMN
WEATHER ROUNDUP FOR MINNESOTA
NATIONAL WEATHER SERVICE TWIN CITIES/CHANHASSEN MN
600 AM CST TUE JAN 17 2017


NOTE: "FAIR" INDICATES FEW OR NO CLOUDS BELOW 12,000 FEET WITH NO
SIGNIFICANT WEATHER AND/OR OBSTRUCTIONS TO VISIBILITY. N/A MEANS
CURRENT SKY AND/OR WEATHER CONDITIONS ARE NOT AVAILABLE.

MNZ060>063-068>070-171300-
   Twin Cities Metro

CITY           SKY/WX    TMP DP  RH WIND       PRES   REMARKS
TWIN CITIES    FRZ DRZL  31  28  89 N6        29.93S WCI  25
6HR MIN TEMP:  30; 6HR MAX TEMP:  31; 6HR PCP:  0.10;

ST PAUL        CLOUDY    31  30  96 NW6       29.94S FOG     WCI  25
CRYSTAL        CLOUDY    31  26  82 N6        29.93R WCI  25
BLAINE         MIX PCPN  32  32 100 NW5       29.93S WCI  27
LAKEVILLE      CLOUDY    30  30 100 N8        29.92R FOG     WCI  23
EDEN PRAIRIE   CLOUDY    32  29  88 N5        29.92S WCI  27
6HR MIN TEMP:  30; 6HR MAX TEMP:  32; 6HR PCP:  0.06;

SOUTH ST PAUL  CLOUDY    32  31  97 N5        29.92S FOG     WCI  27
LAKE ELMO      MIX PCPN  32  32 100 N5        29.92S WCI  27
$$
MNZ001>005-007-008-013>017-022>024-027-028-171300-
   Northwest Minnesota

CITY           SKY/WX    TMP DP  RH WIND       PRES   REMARKS
BEMIDJI        CLOUDY    -4  -7  86 CALM      29.94R
HALLOCK        CLOUDY     1  -2  85 SE8       29.93F WCI -12
ROSEAU         CLOUDY     0  -6  78 S5        29.93F WCI -10
WARROAD        CLOUDY     1  -2  85 CALM      29.93S
THIEF RVR FALL CLOUDY     1  -1  91 W7        29.97R WCI -12
CROOKSTON      CLOUDY     1  -2  85 SW5       29.99R WCI  -8
FOSSTON        CLOUDY     1  -2  85 S5        29.94F WCI  -8
DETROIT LAKES  CLOUDY     5   1  85 CALM      29.97S
MOORHEAD       CLOUDY     0  -6  78 S6        29.99R WCI -12
PARK RAPIDS    CLOUDY    -2  -8  76 CALM      29.93F HAZE
MAHNOMEN       FAIR       3   0  86 S5        29.95F WCI  -6
$$
MNZ006-009>011-018-025>026-171300-
   North Central Minnesota

CITY           SKY/WX    TMP DP  RH WIND       PRES   REMARKS
BAUDETTE       CLOUDY    -5 -10  79 SE8       29.90F WCI -20
FLAG ISLAND    CLOUDY     0  -4  85 CALM      29.92F
INTL FALLS     CLOUDY    -5 -10  79 CALM      29.94S
6HR MIN TEMP:  -6; 6HR MAX TEMP:   2;

WASKISH        CLOUDY    -4  -8  84 CALM      29.95R
BIG FORK       CLOUDY    -2  -8  78 CALM      29.92F
LONGVILLE      CLOUDY    -2  -6  84 CALM      29.95R
GRAND RAPIDS   FOG        3   0  85 N3        29.95F VSB 1/4
CRANE LAKE     CLOUDY    -6  -8  92 CALM      29.97F
ORR            CLOUDY     1  -2  85 CALM      29.91F
COOK           CLOUDY    -4  -8  84 CALM      29.93F
WALKER         FAIR       2  -2  84 W3        29.94S
$$
MNZ012-019>021-037-171300-
   Northeast Minnesota

CITY           SKY/WX    TMP DP  RH WIND       PRES   REMARKS
DULUTH         CLOUDY    17  13  84 CALM      29.92F FOG
6HR MIN TEMP:  14; 6HR MAX TEMP:  23;

ELY            CLOUDY    -6  -8  92 CALM      29.92F
HIBBING        FOG       -2  -5  87 CALM      29.93F VSB 3/4
EVELETH        CLOUDY     2  -2  81 CALM      29.95R
DULUTH HARBOR  CLOUDY    25  19  80 CALM      29.97S
TWO HARBORS    PTCLDY    27  21  80 N3        29.92F HAZE
SILVER BAY     CLOUDY    21  21 100 CALM      29.93F FOG
GRAND MARAIS     N/A     19  17  92 N5        29.97F WCI  12
G MARAIS ARPRT CLEAR     10   5  79 CALM      29.92F HAZE
$$
MNZ029>031-032-039>041-046>048-054>057-064-171300-
   West Central Minnesota

CITY           SKY/WX    TMP DP  RH WIND       PRES   REMARKS
FERGUS FALLS   CLOUDY     1  -2  85 CALM      30.05R
WHEATON        CLOUDY     9   7  92 CALM      30.02F
MORRIS         CLOUDY     3   0  85 CALM      29.99R
ALEXANDRIA     CLOUDY     5   2  87 CALM      29.96F FOG
ELBOW LAKE     FAIR       2  -1  88 CALM      30.00R
WADENA         CLOUDY     0  -2  92 CALM      29.94F FOG
GLENWOOD       CLOUDY    14  12  92 W5        29.96F WCI   6
APPLETON       CLOUDY     7   1  78 W6        30.01S WCI  -3
ORTONVILLE     CLOUDY     3   0  85 CALM      30.01R
MADISON        CLOUDY    10   9  92 W5        30.01F WCI   2
WILLMAR        CLOUDY    25  25 100 NW6       29.99S FOG     WCI  18
$$
MNZ033>034-036-042>043-049>051-058-059-171300-
   Central Minnesota

CITY           SKY/WX    TMP DP  RH WIND       PRES   REMARKS
ST CLOUD       CLOUDY    26  24  92 N5        29.96S WCI  20
6HR MIN TEMP:  21; 6HR MAX TEMP:  28;

SAUK CENTRE    CLOUDY    23  20  91 NW5       29.97S WCI  16
PAYNESVILLE    CLOUDY    27  27 100 NW6       29.97S FOG     WCI  20
AITKIN         CLOUDY     0  -8  71 CALM      29.94S
PINE RIVER     FOG        0  -4  85 CALM      29.99R VSB 1/4
BRAINERD       CLOUDY     5   4  95 CALM      29.96S FOG
STAPLES        CLOUDY    -2  -6  84 CALM      29.95F FOG
LONG PRAIRIE   FAIR      18  16  93 CALM      29.97S FOG
LITTLE FALLS   CLOUDY    27  23  86 CALM      29.97S FOG
LITCHFIELD     CLOUDY    30  30 100 NW3       29.97R FOG
BUFFALO        CLOUDY    29  24  81 NW6       29.97R WCI  23
MAPLE LAKE     CLOUDY    28  26  89 NW7       29.97S WCI  21
HUTCHINSON     CLOUDY    31  29  94 NW8       29.97S FOG     WCI  24
$$
MNZ037-044-045-052-053-171300-
   East Central Minnesota

CITY           SKY/WX    TMP DP  RH WIND       PRES   REMARKS
PRINCETON      MOCLDY    23  19  86 NW5       29.96R WCI  17
MORA           CLOUDY    18  14  86 CALM      29.97R FOG
CAMBRIDGE      CLOUDY    30  19  64 NW5       29.94R WCI  25
RUSH CITY      CLOUDY    27  21  80 VRB5      29.95R WCI  21
MOOSE LAKE     CLOUDY    12  10  92 CALM      29.93S FOG
HINCKLEY       FAIR      27  21  80 N3        29.95R
CLOQUET        PTCLDY    12  10  92 NW6       29.93S WCI   3
MCGREGOR       CLOUDY     5   1  85 CALM      29.96S
$$
MNZ071>073-080-081-089-090-097-098-171300-
   Southwest Minnesota

CITY           SKY/WX    TMP DP  RH WIND       PRES   REMARKS
MONTEVIDEO     CLOUDY    18  12  79 N3        30.01F
GRANITE FALLS  CLOUDY    20  16  84 W8        30.01F WCI  10
CANBY            N/A     14  10  85 CALM      30.01F
MARSHALL       CLOUDY    19  14  81 NW10      30.00F WCI   7
REDWOOD FALLS  CLOUDY    23  21  92 NW10      29.98S FOG     WCI  12
OLIVIA         CLOUDY    23  21  93 NW9       29.98S FOG     WCI  13
PIPESTONE      FOG       21  19  93 NW3       29.97S VSB 1/4
WINDOM         FOG       25  23  93 NW8       29.96R VSB 3/4 WCI  16
JACKSON        CLOUDY    27  27 100 NW7       29.96R FOG     WCI  19
TRACY          CLOUDY    21  20  93 NW7       29.99S WCI  13
SLAYTON        FOG       23  23  99 NW8       29.98R VSB 1/2 WCI  14
$$
MNZ065>067-074>077-082>085-091>093-171300-
   South Central Minnesota

CITY           SKY/WX    TMP DP  RH WIND       PRES   REMARKS
MANKATO        CLEAR     29  28  96 NW9       29.95R FOG     WCI  20
NEW ULM        CLOUDY    28  27  93 NW7       29.96S FOG     WCI  21
ST JAMES       CLOUDY    27  27 100 NW8       29.98R FOG     WCI  18
FAIRMONT       FOG       29  28  96 NW15      29.96R VSB 1/2 WCI  18
GLENCOE        CLOUDY    31  28  90 NW9       29.95R WCI  23
FARIBAULT      MIX PCPN  30  30 100 NW5       29.92R WCI  25
OWATONNA       CLOUDY    30  28  93 NW3       29.91R FOG
WASECA         CLOUDY    32  32 100 NW5       29.93R FOG     WCI  27
ALBERT LEA     CLOUDY    30  30 100 NW3       29.91R FOG
$$
MNZ078>079-086>088-094>096-171300-
   Southeast Minnesota

CITY           SKY/WX    TMP DP  RH WIND       PRES   REMARKS
ROCHESTER      MIX PCPN  32  32 100 N7        29.87S FOG     WCI  26
6HR MIN TEMP:  31; 6HR MAX TEMP:  32; 6HR PCP:  0.03;

RED WING       MIX PCPN  34  32  93 CALM      29.90S
STANTON        LGT SNOW  32  31  95 N6        29.90R WCI  26
DODGE CENTER   CLOUDY    30  30 100 CALM      29.88R FOG
WINONA         CLOUDY    34  32  93 NW6       29.89R FOG     WCI  29
AUSTIN         CLOUDY    30  28  93 NW3       29.89R FOG
PRESTON        CLOUDY    31  31  97 N5        29.87S FOG     WCI  27
$$
ABBREVIATIONS USED IN REMARKS
   TC - TEMPERATURES IN CELSIUS
  WCI - WIND CHILL INDEX
   HX - HEAT INDEX
  VSB - VISIBILITY
$$




USA.gov is the U.S. government's official web portal to all federal, state and local government web resources and services.